Hatteras, NC

8:28 PM EDT on June 22, 2017 (GMT -0400)
Mitchell

Weather History for KHSE - May, 2014

Change the Weather History Date:

Friday, May 2, 2014

  Actual Average Record
Temperature  
Mean Temperature 67 °F 64 °F  
Max Temperature 72 °F 70 °F 82 °F (1910)
Min Temperature 62 °F 57 °F 39 °F (1971)
Degree Days  
Heating Degree Days 0 3  
Month to date heating degree days 0 6  
Since 1 July heating degree days 2525 2540  
Cooling Degree Days 2 2  
Month to date cooling degree days 7 4  
Year to date cooling degree days 34 32  
Growing Degree Days 18 (Base 50)    
Moisture  
Dew Point 57 °F    
Average Humidity 67    
Maximum Humidity 90    
Minimum Humidity 44    
Precipitation  
Precipitation 0.01 in 0.12 in 7.42 in (1934)
Month to date precipitation 0.71 0.24  
Year to date precipitation 22.08 17.91  
Snow  
Snow 0.00 in - - ()
Month to date snowfall 0.0  
Since 1 July snowfall 5.7  
Snow Depth 0.00 in    
Sea Level Pressure  
Sea Level Pressure 29.88 in    
Wind  
Wind Speed 10 mph (WSW)    
Max Wind Speed 21 mph    
Max Gust Speed 27 mph    
Visibility 9 miles    
Events Rain    
T = Trace of Precipitation, MM = Missing Value Source: NWS Daily Summary

Daily Weather History Graph

Daily Weather History Graph

Search for Another Location

Airport or City:

Trip Planner

Search our weather history database for the weather conditions in past years. The results will help you decide how hot, cold, wet, or windy it might be!

Date:

Astronomy

May. 02, 2014 Rise Set
Actual Time 6:10 AM EDT 7:49 PM EDT
Civil Twilight 5:43 AM EDT 8:16 PM EDT
Nautical Twilight 5:10 AM EDT 8:49 PM EDT
Astronomical Twilight 4:35 AM EDT 9:24 PM EDT
Moon 8:47 AM EDT (5/2) 11:07 PM EDT (5/2)
Length of Visible Light 14h 33m
Length of Day
13h 38m
Waxing Crescent, 12% of the Moon is Illuminated
May 2
Waxing Crescent
May 6
First Quarter
May 14
Full
May 21
Last Quarter
May 28
New

Hourly Weather History & Observations

Time (EDT) Temp. Dew Point Humidity Pressure Visibility Wind Dir Wind Speed Gust Speed Precip Events Conditions
12:51 AM 72.0 °F 68.0 °F 87% 29.85 in 7.0 mi SW 17.3 mph 26.5 mph N/A   Overcast
2:05 AM 72.0 °F 68.0 °F 87% 29.83 in 5.0 mi SW 15.0 mph 23.0 mph N/A   Overcast
2:51 AM 72.0 °F 68.0 °F 87% 29.83 in 6.0 mi WSW 18.4 mph 24.2 mph N/A   Overcast
3:16 AM 71.1 °F 68.0 °F 90% 29.83 in 5.0 mi West 16.1 mph 24.2 mph N/A   Overcast
3:24 AM 71.1 °F 66.9 °F 87% 29.83 in 6.0 mi West 13.8 mph 25.3 mph N/A   Overcast
3:47 AM 69.8 °F 64.4 °F 83% 29.83 in 10.0 mi West 16.1 mph 26.5 mph N/A   Overcast
3:51 AM 70.0 °F 64.9 °F 84% 29.83 in 10.0 mi West 13.8 mph 23.0 mph N/A   Overcast
4:10 AM 70.0 °F 64.9 °F 84% 29.83 in 10.0 mi West 12.7 mph 23.0 mph N/A   Overcast
4:51 AM 70.0 °F 64.0 °F 81% 29.82 in 10.0 mi West 10.4 mph 20.7 mph N/A   Clear
5:51 AM 68.0 °F 61.0 °F 78% 29.84 in 10.0 mi WNW 12.7 mph 26.5 mph N/A   Clear
6:51 AM 66.9 °F 59.0 °F 76% 29.87 in 10.0 mi WNW 16.1 mph 21.9 mph N/A   Clear
7:51 AM 66.9 °F 57.0 °F 70% 29.88 in 10.0 mi WNW 11.5 mph 18.4 mph N/A   Clear
8:51 AM 66.0 °F 57.0 °F 73% 29.89 in 10.0 mi NW 10.4 mph - N/A   Clear
9:51 AM 66.9 °F 55.9 °F 68% 29.90 in 10.0 mi NW 8.1 mph - N/A   Clear
10:51 AM 68.0 °F 57.0 °F 68% 29.92 in 10.0 mi WNW 6.9 mph - N/A   Mostly Cloudy
11:44 AM 68.0 °F 51.1 °F 55% 29.92 in 10.0 mi ENE 9.2 mph - N/A   Scattered Clouds
11:51 AM 69.1 °F 51.1 °F 53% 29.92 in 10.0 mi ENE 6.9 mph - N/A   Partly Cloudy
12:27 PM 68.0 °F 48.0 °F 49% 29.92 in 10.0 mi NE 9.2 mph - N/A   Mostly Cloudy
12:44 PM 68.0 °F 48.0 °F 49% 29.91 in 10.0 mi ENE 9.2 mph - N/A   Mostly Cloudy
12:51 PM 68.0 °F 46.9 °F 47% 29.92 in 10.0 mi NE 8.1 mph 16.1 mph N/A   Mostly Cloudy
1:51 PM 66.0 °F 45.0 °F 47% 29.91 in 10.0 mi ENE 9.2 mph - N/A   Mostly Cloudy
2:51 PM 64.9 °F 42.1 °F 43% 29.89 in 10.0 mi ENE 6.9 mph - N/A   Partly Cloudy
3:51 PM 64.9 °F 44.1 °F 47% 29.91 in 10.0 mi ESE 6.9 mph - 0.00 in   Overcast
4:51 PM 63.0 °F 51.1 °F 65% 29.91 in 9.0 mi ESE 6.9 mph - 0.00 in Rain Light Rain
5:51 PM 63.0 °F 55.0 °F 75% 29.89 in 10.0 mi South 6.9 mph - 0.00 in Rain Light Rain
6:51 PM 63.0 °F 55.9 °F 78% 29.91 in 10.0 mi South 11.5 mph - 0.01 in Rain Light Rain
7:51 PM 64.0 °F 53.1 °F 67% 29.91 in 10.0 mi SSW 9.2 mph - 0.00 in   Mostly Cloudy
8:51 PM 64.9 °F 55.9 °F 73% 29.90 in 10.0 mi SSW 9.2 mph - N/A   Overcast
9:51 PM 64.0 °F 55.9 °F 75% 29.91 in 10.0 mi South 12.7 mph - N/A   Overcast
10:51 PM 63.0 °F 54.0 °F 72% 29.91 in 10.0 mi SSW 10.4 mph - N/A   Overcast
11:51 PM 64.0 °F 52.0 °F 65% 29.91 in 10.0 mi SW 6.9 mph - N/A   Overcast